GW5299 Weather Reports


time (UTC)temp
C
wind
direction
speed
KPH
gust
KPH
rain 1hr
cm
rain 24hr
cm
rain mn
cm
humidity
%
barometer
mb
20260505193003 10 9 0.0 1.6 0.00 0.00 0.10 96 1008.9
20260505192057 10 354 0.0 3.2 0.00 0.00 0.10 96 1008.9
20260505191049 10 4 1.6 4.8 0.00 0.00 0.10 96 1008.9
20260505190042 10 9 1.6 4.8 0.00 0.00 0.10 96 1008.9
20260505185035 10 12 0.0 3.2 0.00 0.00 0.10 96 1008.8
20260505184027 10 1 1.6 4.8 0.00 0.00 0.10 96 1008.9
20260505183011 10 357 3.2 4.8 0.00 0.00 0.10 96 1008.8
20260505182003 10 7 0.0 1.6 0.00 0.00 0.10 96 1008.8
20260505181056 10 11 0.0 3.2 0.00 0.00 0.10 96 1008.8
20260505180048 10 357 1.6 6.4 0.00 0.00 0.10 96 1008.7
20260505175041 10 7 1.6 6.4 0.00 0.00 0.10 96 1008.8
20260505174030 10 4 4.8 11.3 0.00 0.00 0.10 96 1008.8
20260505173020 10 359 3.2 4.8 0.00 0.00 0.10 96 1008.8
20260505172007 10 347 3.2 11.3 0.00 0.00 0.10 96 1008.8
20260505170055 11 3 3.2 6.4 0.00 0.00 0.10 96 1008.9
20260505165048 11 12 3.2 6.4 0.00 0.00 0.10 96 1009.0
20260505164040 11 16 1.6 4.8 0.00 0.00 0.10 96 1009.0
20260505163032 11 19 3.2 6.4 0.00 0.00 0.10 95 1009.0
20260505162025 11 11 1.6 9.7 0.00 0.00 0.10 95 1008.9
20260505161007 11 10 4.8 6.4 0.00 0.00 0.10 95 1009.0
20260505153037 11 20 6.4 9.7 0.18 0.00 0.08 92 1009.1
20260505152030 11 10 4.8 9.7 0.13 0.00 0.05 91 1009.2
20260505151022 11 14 4.8 12.9 0.00 0.00 0.03 91 1009.2
20260505125029 11 23 6.4 12.9 0.00 0.00 0.03 89 1010.0
20260505124011 11 352 9.7 14.5 0.00 0.00 0.03 89 1010.0
20260505123004 11 3 4.8 9.7 0.00 0.00 0.03 90 1010.1
20260505122057 11 32 4.8 12.9 0.00 0.00 0.03 90 1010.2
20260505121050 11 356 3.2 11.3 0.00 0.00 0.03 91 1010.2
20260505120043 11 24 6.4 6.4 0.00 0.00 0.03 91 1010.1
20260505115036 11 12 3.2 14.5 0.00 0.00 0.03 91 1010.1
20260505114029 11 18 11.3 14.5 0.00 0.00 0.03 91 1010.2
20260505113014 10 13 6.4 16.1 0.00 0.00 0.03 91 1010.3
20260505112006 10 19 9.7 11.3 0.00 0.00 0.03 91 1010.3
20260505111059 10 354 6.4 12.9 0.00 0.00 0.03 91 1010.3
20260505102015 11 21 3.2 11.3 0.00 0.00 0.03 95 1010.4
20260505101100 11 7 4.8 9.7 0.00 0.00 0.03 95 1010.4
20260505100053 10 7 6.4 11.3 0.00 0.00 0.03 95 1010.4
20260505095034 10 7 6.4 9.7 0.00 0.00 0.03 95 1010.4
20260505094027 10 35 3.2 11.3 0.00 0.00 0.03 95 1010.4
20260505093012 10 20 3.2 16.1 0.00 0.00 0.03 95 1010.5
20260505092005 10 23 9.7 11.3 0.00 0.00 0.03 95 1010.6
20260505091058 10 14 3.2 12.9 0.00 0.00 0.03 95 1010.5
20260505090049 10 12 1.6 9.7 0.00 0.00 0.03 95 1010.5
20260505085042 10 358 4.8 12.9 0.00 0.00 0.03 95 1010.5
20260505084035 10 349 11.3 12.9 0.00 0.00 0.03 95 1010.6
20260505083028 10 356 6.4 12.9 0.00 0.00 0.03 95 1010.5
20260505082010 10 3 4.8 11.3 0.00 0.00 0.03 96 1010.5
20260505081003 10 359 6.4 12.9 0.00 0.00 0.03 95 1010.5
20260505080056 10 358 6.4 11.3 0.00 0.00 0.03 96 1010.4
20260505075049 10 353 6.4 11.3 0.00 0.00 0.03 96 1010.4
20260505074042 10 354 3.2 12.9 0.00 0.00 0.03 96 1010.5
20260505073035 10 353 3.2 14.5 0.00 0.00 0.03 96 1010.5
20260505072028 10 344 3.2 11.3 0.00 0.00 0.03 96 1010.5
20260505071012 10 345 4.8 9.7 0.00 0.00 0.03 96 1010.4
20260505070005 10 349 6.4 9.7 0.00 0.00 0.03 96 1010.4
20260505065056 10 1 6.4 9.7 0.00 0.00 0.03 96 1010.4
20260505064049 10 8 4.8 12.9 0.00 0.00 0.03 96 1010.4
20260505063042 11 13 6.4 6.4 0.00 0.00 0.03 96 1010.5
20260505062034 10 8 4.8 11.3 0.00 0.00 0.03 96 1010.6
20260505061027 11 355 0.0 6.4 0.00 0.00 0.03 96 1010.6
20260505060007 11 355 6.4 12.9 0.00 0.00 0.03 96 1010.7
20260505054054 11 358 8.0 12.9 0.00 0.00 0.03 96 1010.5
20260505053048 11 357 4.8 11.3 0.00 0.00 0.03 96 1010.4
20260505052040 11 9 6.4 11.3 0.00 0.00 0.03 96 1010.4
20260505051021 11 18 4.8 9.7 0.00 0.00 0.03 96 1010.3
20260505041035 11 4 1.6 9.7 0.00 0.00 0.03 96 1010.4
20260505040027 11 14 3.2 6.4 0.00 0.00 0.03 96 1010.5
20260505035010 11 15 4.8 11.3 0.00 0.00 0.03 96 1010.5
20260505034003 11 17 3.2 9.7 0.00 0.00 0.03 96 1010.4
20260505033056 11 2 3.2 12.9 0.00 0.00 0.03 96 1010.4
20260505032049 12 11 3.2 11.3 0.00 0.00 0.03 96 1010.5
20260505031042 12 357 3.2 4.8 0.00 0.00 0.03 96 1010.4
20260505030035 12 12 3.2 12.9 0.00 0.00 0.03 96 1010.4
20260505025024 12 24 6.4 12.9 0.00 0.00 0.03 96 1010.4
20260505024009 12 14 4.8 9.7 0.00 0.00 0.03 96 1010.5
20260505023003 12 4 1.6 14.5 0.00 0.00 0.03 96 1010.6
20260505022056 12 4 3.2 9.7 0.00 0.00 0.03 96 1010.6
20260505021046 12 10 1.6 11.3 0.00 0.00 0.03 96 1010.6
20260505020026 12 360 0.0 4.8 0.00 0.00 0.03 96 1010.7
20260505015015 12 1 3.2 11.3 0.00 0.00 0.03 96 1010.6
20260505014103 12 18 8.0 9.7 0.00 0.00 0.03 96 1010.7
20260505013052 12 4 4.8 9.7 0.00 0.00 0.03 96 1010.6
20260505012028 13 7 6.4 9.7 0.00 0.00 0.03 96 1010.5
20260505011017 13 352 6.4 11.3 0.00 0.00 0.03 96 1010.6
20260505010059 13 355 0.0 6.4 0.00 0.00 0.03 96 1010.8
20260505005043 13 357 1.6 6.4 0.00 0.00 0.03 96 1010.8
20260505004015 13 1 1.6 6.4 0.00 0.00 0.03 96 1010.8
20260505003102 13 5 3.2 4.8 0.00 0.00 0.03 96 1010.8
20260505002050 13 346 1.6 4.8 0.00 0.00 0.03 96 1010.9
20260505001030 13 7 1.6 4.8 0.00 0.00 0.03 96 1011.0
20260505000012 13 5 0.0 4.8 0.00 0.00 0.03 96 1011.1
20260504235058 13 7 3.2 4.8 0.00 0.00 0.03 96 1011.2
20260504234050 13 2 3.2 3.2 0.00 0.00 0.03 96 1011.1
20260504233037 13 0 1.6 3.2 0.00 0.00 0.03 96 1011.2
20260504232029 13 339 0.0 1.6 0.18 0.00 0.03 96 1011.2
20260504231021 13 331 0.0 0.0 0.00 0.00 0.00 96 1011.2
20260504230008 13 331 0.0 0.0 0.00 0.00 0.00 96 1011.4
20260504225101 13 331 0.0 0.0 0.00 0.00 0.00 96 1011.4
20260504224054 13 331 0.0 0.0 0.00 0.00 0.00 96 1011.5
20260504223047 13 331 0.0 0.0 0.00 0.00 0.00 96 1011.5
20260504222040 13 331 0.0 0.0 0.00 0.00 0.00 96 1011.7
20260504221033 13 331 0.0 0.0 0.00 0.00 0.00 96 1011.7
20260504220022 13 331 0.0 0.0 0.00 0.00 0.00 96 1011.9
20260504215008 13 331 0.0 0.0 0.00 0.00 0.86 96 1012.0
20260504214059 13 331 0.0 0.0 0.00 0.00 0.86 96 1012.0
20260504213052 13 331 0.0 0.0 0.00 0.00 0.86 96 1012.1
20260504212046 13 331 0.0 1.6 0.13 0.00 0.86 96 1012.1
20260504211039 13 335 1.6 4.8 0.00 0.00 0.84 95 1012.1
20260504210030 13 219 0.0 0.0 0.00 0.00 0.84 95 1012.1
20260504205022 13 219 0.0 0.0 0.00 0.00 0.84 95 1012.1
20260504204007 13 219 0.0 0.0 0.00 0.00 0.84 95 1012.2
20260504203100 13 236 0.0 3.2 0.00 0.00 0.84 95 1012.1
20260504202052 13 27 0.0 0.0 0.00 0.00 0.84 95 1012.1
20260504201045 13 27 0.0 0.0 0.00 0.00 0.84 95 1012.1
20260504200038 13 27 0.0 0.0 0.00 0.00 0.84 95 1012.1
20260504195031 14 27 0.0 0.0 0.00 0.00 0.84 95 1012.0
20260504194024 13 27 0.0 1.6 0.18 0.00 0.84 95 1011.9